Theta_e
353 354 353 351 351 353 355 355 354 353 353 353 352 352 352 353 353 352 351 351 351 351 350 350 349 348 348 347 346 345 346 347 347 348 348 349 349 350 352 354 356 357 357 356 354 353 352 353 353 354 356 357 356 356 355 354 354 353 354 353 353 354 354 355 356 355 354 356 354 351 352 353 353 353 353 353 353 353 352 351 351 353 354 356 357
352 352 352 349 348 351 353 354 355 354 354 354 353 353 354 353 352 352 352 351 351 350 349 349 348 348 346 345 345 344 345 346 347 348 348 349 349 350 352 354 356 357 357 356 355 353 353 352 354 355 355 355 355 356 356 355 354 354 354 354 354 354 353 353 353 354 355 354 352 353 355 356 355 356 355 354 354 353 353 352 352 353 354 355 356
350 351 352 350 349 350 350 353 355 354 353 354 354 353 353 353 353 352 352 351 351 350 349 348 347 347 347 345 345 344 344 345 346 347 348 348 349 350 352 354 355 356 356 356 355 354 353 354 355 356 356 354 353 354 355 355 355 355 356 356 355 356 355 355 353 354 354 352 352 354 355 355 355 355 355 354 353 353 352 351 352 355 355 354 354
349 351 352 351 351 351 349 350 350 349 351 353 354 354 353 353 352 352 351 351 350 349 348 348 347 347 347 345 345 344 343 343 344 345 345 347 348 350 352 353 355 356 355 356 356 354 354 356 357 356 355 353 352 353 354 356 356 356 356 356 355 355 356 356 356 356 354 353 353 354 355 356 355 354 354 353 353 354 355 354 354 357 355 353 353
349 351 351 351 350 350 349 349 348 348 350 353 353 353 353 352 352 352 351 351 350 348 348 348 347 346 346 345 345 345 344 344 344 344 344 345 346 348 352 354 355 355 355 356 357 355 355 356 355 354 354 354 354 354 356 358 358 358 357 356 355 355 357 358 357 356 355 353 352 354 354 354 352 351 351 352 353 355 357 355 355 354 353 351 352
352 351 350 349 349 350 351 351 350 350 351 352 352 352 352 352 351 350 350 350 350 349 348 348 347 346 346 345 344 344 346 345 345 345 344 345 346 348 352 354 354 354 354 356 356 356 355 354 354 352 352 353 354 355 357 358 358 358 357 354 353 355 358 358 355 354 354 352 351 352 352 350 349 349 349 350 352 355 354 353 352 351 350 350 352
352 352 351 350 350 352 353 353 353 352 352 352 352 352 352 351 351 349 349 349 349 349 348 348 348 347 346 345 344 344 345 345 346 346 346 347 349 351 352 353 354 354 354 355 356 356 354 353 354 353 350 351 354 355 358 359 359 359 357 354 353 355 356 356 354 354 354 353 351 350 349 349 348 347 348 349 351 353 353 352 352 350 349 350 352
351 352 353 353 352 351 351 352 354 354 353 354 354 353 353 352 351 350 349 349 348 348 348 348 347 347 347 346 344 344 344 345 346 347 347 349 351 351 352 352 353 354 354 354 355 355 354 353 354 354 352 353 355 357 358 359 359 358 357 356 355 355 355 354 354 354 354 353 351 350 349 350 349 348 348 349 350 351 350 350 352 350 349 350 351
349 350 352 353 352 352 352 352 353 353 354 356 357 357 355 353 352 350 350 351 350 348 348 347 347 347 346 346 344 344 344 344 345 346 348 350 351 351 352 353 353 354 355 355 356 355 353 353 352 353 354 355 357 358 359 358 357 356 356 356 356 355 354 354 354 355 354 353 351 350 350 350 349 349 349 349 349 349 348 349 352 351 348 346 347
349 349 351 351 352 353 352 353 353 353 354 356 357 357 355 354 353 351 350 351 352 351 350 348 347 346 346 345 345 344 345 346 346 346 347 350 352 353 353 354 354 354 355 356 355 355 353 352 352 354 356 357 357 358 358 357 356 355 355 355 355 355 354 352 353 354 354 353 352 351 351 350 349 349 349 349 348 347 347 348 348 347 347 345 344
347 347 348 349 350 351 352 352 353 353 354 355 355 355 354 353 353 353 351 350 351 353 352 350 347 346 346 346 345 345 345 347 348 347 347 349 352 353 354 354 354 354 355 355 355 354 353 351 352 355 358 358 358 358 357 356 355 354 354 355 354 353 352 351 352 352 352 353 352 351 351 350 348 347 348 348 348 347 347 346 345 345 347 347 344
343 344 344 345 346 348 349 351 352 352 353 354 354 355 354 354 353 354 353 351 350 351 353 352 350 347 346 346 346 346 346 347 348 348 349 351 353 354 354 353 353 353 354 354 354 355 353 351 352 357 359 359 358 357 356 354 354 353 353 352 351 351 350 350 350 350 351 352 350 348 348 347 346 346 346 347 348 348 347 346 345 345 344 342 339
341 341 342 342 343 345 346 349 350 351 352 353 353 354 355 355 355 354 354 352 350 350 352 353 352 349 348 347 346 347 347 348 349 349 350 352 353 354 354 353 352 352 352 352 353 354 352 351 354 357 358 357 357 356 354 353 353 352 351 351 349 349 348 347 347 348 348 347 345 343 343 343 343 344 345 347 347 348 347 344 343 342 340 338 338
338 339 340 340 340 341 343 345 346 347 350 351 352 353 354 356 357 355 355 354 351 351 352 354 352 350 349 347 346 347 347 348 349 349 351 352 352 354 355 352 352 353 351 349 350 353 352 351 354 357 357 356 355 354 354 353 352 351 350 349 346 344 343 342 343 343 342 341 339 338 338 339 340 341 342 344 346 347 345 342 340 339 337 336 337
337 338 338 338 338 339 340 341 342 343 345 347 350 351 352 354 356 356 356 355 354 353 353 354 354 351 350 349 348 347 346 347 348 349 351 352 352 354 355 352 352 353 352 350 350 352 352 353 355 357 356 355 353 353 353 352 350 348 345 342 339 337 337 336 335 335 335 334 334 335 336 337 339 340 341 343 345 346 344 340 338 338 336 335 336
336 337 337 337 337 338 338 338 339 340 342 344 346 348 350 351 352 355 356 356 355 354 353 354 354 352 350 350 350 349 347 346 347 349 350 351 352 352 352 351 351 352 352 351 351 352 353 355 356 356 355 353 352 351 351 349 346 343 339 337 335 335 335 334 332 331 330 331 332 333 334 336 338 340 342 344 346 345 342 337 336 336 336 334 333
335 335 336 336 336 336 337 337 337 339 340 342 344 345 347 348 350 351 353 354 354 353 353 352 351 350 350 350 349 350 349 348 349 350 350 352 351 351 350 350 352 352 351 351 352 352 353 355 357 356 354 352 350 348 348 347 343 339 337 336 335 335 335 334 332 330 329 329 331 332 333 335 336 339 342 345 345 343 340 335 334 335 334 331 330
334 335 335 335 335 336 336 336 337 338 339 342 343 344 346 347 348 349 350 352 352 352 352 351 350 350 351 352 351 350 350 350 351 351 353 353 352 351 351 352 352 351 351 351 352 353 354 354 355 354 352 351 349 347 346 345 341 337 336 336 335 336 335 334 332 329 327 327 328 330 332 333 334 336 339 342 343 341 338 334 334 334 332 330 329
334 334 334 334 334 335 335 335 336 336 338 340 343 345 347 347 348 349 350 351 352 352 352 351 351 351 352 353 352 350 350 350 350 351 352 351 351 351 351 351 350 350 350 351 351 352 353 352 352 352 350 349 348 345 344 343 339 337 336 336 336 336 334 331 330 327 326 325 326 326 327 328 327 327 328 332 335 336 336 334 333 332 330 328 327
334 334 334 334 334 334 334 334 334 335 337 339 340 344 346 347 348 349 349 350 351 351 351 351 350 351 351 352 352 350 350 350 350 350 350 349 349 350 350 349 349 348 348 349 350 350 350 351 351 349 348 349 347 343 341 340 338 336 336 336 336 334 331 328 327 326 327 327 326 325 324 324 323 322 322 322 323 325 327 329 330 329 327 325 323
334 333 333 332 332 332 333 334 334 334 335 337 338 340 342 344 346 348 349 349 349 349 349 349 349 349 348 349 349 348 347 347 348 349 349 349 349 350 349 349 349 348 347 347 347 347 348 349 348 347 348 347 344 340 339 339 338 337 336 335 334 332 329 327 327 327 327 327 327 327 326 325 324 324 323 322 321 320 320 322 324 325 323 322 321
333 332 331 331 330 331 332 333 333 334 334 335 336 337 338 341 343 344 345 346 346 345 344 343 342 341 340 341 341 341 341 341 344 345 346 349 350 350 349 348 347 346 345 344 342 343 344 345 345 346 347 344 340 339 338 338 337 336 334 333 331 330 329 328 327 327 327 326 326 327 327 327 326 326 325 325 323 322 320 320 321 322 322 320 320
332 329 329 329 330 330 331 332 332 333 333 333 334 334 335 337 339 340 341 341 341 339 337 336 334 332 332 332 334 336 336 338 341 343 345 348 349 348 347 345 343 342 340 340 340 341 341 342 342 343 343 340 339 338 337 336 335 334 333 332 330 329 328 327 326 326 325 325 325 325 325 326 327 327 327 327 325 323 322 322 323 322 321 320 319
332 328 327 328 330 330 331 332 332 332 333 332 332 332 332 333 333 334 335 335 334 332 330 330 329 327 327 327 327 330 333 335 337 340 343 344 345 345 345 341 338 336 333 332 334 337 336 336 337 338 338 336 335 334 333 332 331 330 329 327 326 324 323 323 323 322 322 322 322 323 323 323 324 325 326 328 327 324 321 321 321 321 320 318 317
331 328 327 328 329 330 331 332 332 332 331 331 331 331 330 330 330 330 330 329 328 327 327 327 326 325 324 324 324 325 327 329 331 334 337 338 337 336 337 334 331 329 326 324 324 328 331 331 332 332 331 330 328 327 327 327 326 325 325 324 323 323 322 322 321 320 320 320 319 320 321 321 320 321 323 325 327 325 322 319 317 317 316 315 314
329 328 328 328 329 330 332 332 332 332 330 330 330 330 330 329 329 328 328 327 327 326 326 325 325 324 324 324 323 323 323 324 326 328 330 331 330 329 329 329 328 326 324 321 320 321 325 326 326 325 325 325 325 324 323 324 324 323 323 323 323 324 323 323 321 320 319 318 317 317 318 319 319 320 320 321 324 325 323 319 316 315 315 314 313
329 329 328 327 328 329 330 330 331 331 329 329 329 329 329 329 329 328 328 328 327 327 326 325 325 325 324 324 323 323 322 322 322 323 324 325 325 325 324 324 325 324 323 322 321 320 321 322 322 322 321 321 322 322 321 321 320 320 320 319 319 320 321 322 322 321 320 318 317 316 316 317 318 319 318 318 318 320 321 318 316 315 315 314 313
329 328 328 328 327 327 327 329 331 330 329 329 329 328 328 328 328 328 328 328 328 327 326 326 325 325 325 324 323 322 322 321 321 321 321 322 321 322 321 321 321 321 321 321 321 320 320 320 320 319 319 318 319 318 318 318 318 318 318 317 317 317 317 319 320 320 319 318 318 317 316 316 316 317 317 316 316 316 317 317 316 315 314 314 312
329 328 328 328 327 326 326 327 328 327 326 326 326 327 328 328 328 328 327 327 327 326 326 326 325 325 324 323 322 321 320 320 321 321 321 321 320 320 320 320 319 319 319 318 318 318 318 318 318 317 317 317 316 316 316 316 316 316 317 317 317 317 316 317 317 317 317 317 318 317 316 315 315 315 315 315 315 315 315 315 315 314 314 312 310
329 329 329 328 327 326 325 324 324 323 323 323 324 325 326 327 327 327 327 327 327 327 326 325 325 325 323 322 321 320 320 320 321 321 320 321 321 320 320 320 319 319 318 317 317 317 317 317 317 317 316 316 316 316 315 315 315 315 315 316 316 316 316 316 316 316 316 317 317 317 316 315 314 313 313 313 314 314 314 314 315 314 313 310 308
330 330 329 328 327 327 325 324 323 322 322 323 322 323 323 324 325 327 327 327 326 326 325 324 323 323 321 319 318 318 318 318 318 318 318 318 318 319 319 318 318 318 317 317 317 317 317 317 317 317 316 316 316 315 315 315 315 314 315 315 315 315 315 315 316 315 315 315 316 316 315 314 314 313 312 312 313 313 312 313 314 313 311 309 308
331 331 330 329 328 327 325 324 323 322 322 322 322 322 322 322 323 325 325 324 323 322 322 321 321 320 320 319 318 317 317 317 316 316 316 317 318 319 318 317 317 316 316 317 317 317 317 317 316 316 316 315 315 315 315 314 314 314 314 315 314 314 314 314 315 315 314 314 314 314 314 313 313 312 311 311 312 312 311 312 312 311 309 308 308
332 331 330 330 328 327 325 324 323 322 322 322 322 322 323 322 322 323 322 322 321 321 321 321 321 321 321 321 321 320 320 320 320 320 320 320 320 320 320 318 317 316 316 316 316 316 316 315 315 315 315 314 314 314 314 314 314 314 314 314 314 314 313 313 314 314 313 313 313 313 313 312 312 311 310 310 311 311 310 311 311 310 310 309 308
332 332 331 330 328 327 326 324 323 323 323 323 323 323 323 323 322 322 321 321 321 321 321 321 321 321 321 321 321 321 321 321 321 321 320 319 319 319 318 317 317 317 317 316 316 316 315 315 314 314 313 313 314 314 314 314 314 314 314 314 314 314 313 312 313 313 313 312 312 312 312 311 311 311 310 310 310 309 309 309 310 310 310 309 309
333 333 332 330 328 327 326 325 325 325 324 324 324 324 323 323 322 322 322 321 321 321 321 321 321 322 321 320 319 319 319 319 319 319 318 318 317 317 317 317 317 316 316 316 316 315 315 315 314 313 312 312 312 312 313 313 313 313 314 313 313 313 312 312 311 311 312 312 311 311 311 311 310 310 310 309 309 308 308 308 308 308 308 308 308
334 334 333 330 328 327 327 326 326 325 325 324 324 323 323 323 322 322 322 322 321 321 321 321 322 323 322 320 318 318 318 318 318 318 317 317 317 317 317 317 316 316 316 316 315 315 314 314 314 313 312 311 311 311 311 311 312 312 313 312 312 312 312 311 311 311 311 311 311 310 310 310 310 309 309 309 308 308 307 307 307 307 306 306 306
334 333 332 330 329 329 328 327 326 325 324 323 322 322 323 322 322 322 322 321 321 321 320 320 321 322 322 321 319 318 318 318 317 317 317 317 317 317 316 316 316 316 315 315 314 314 313 313 313 312 312 312 311 311 311 310 310 311 311 312 312 312 311 311 310 310 310 310 310 310 309 309 309 309 308 308 307 307 306 306 306 305 305 305 305
333 332 331 330 330 329 328 328 327 325 324 322 321 321 322 322 322 322 322 321 321 321 321 321 321 320 321 321 319 319 318 318 317 317 317 317 316 316 316 316 316 316 316 315 315 315 314 313 313 313 312 312 312 311 311 311 310 310 310 311 311 311 311 310 310 310 309 309 308 309 309 309 308 308 307 307 307 306 305 305 305 305 304 304 304
332 332 331 329 329 329 328 328 327 326 324 324 323 321 321 321 321 322 322 321 321 320 320 321 320 320 320 320 319 319 318 317 317 317 317 317 316 316 316 317 317 317 316 316 316 315 315 315 314 314 313 313 312 311 311 310 310 309 309 310 310 310 310 310 309 309 309 309 308 308 308 308 308 307 307 307 306 306 305 305 305 304 303 303 303
331 332 332 331 329 329 329 329 328 326 325 325 324 323 322 320 319 320 320 320 320 320 320 319 319 320 320 320 320 319 318 317 317 317 317 317 317 317 317 317 317 316 316 315 314 314 314 314 314 314 314 313 313 311 310 310 309 308 308 309 309 309 309 309 309 308 308 308 308 307 307 308 307 306 306 306 305 305 304 304 304 303 302 302 302
329 330 331 332 331 330 330 329 328 327 326 326 326 325 324 321 319 318 318 319 319 319 319 319 319 320 321 322 323 321 319 318 317 317 317 318 318 318 318 317 316 316 316 315 315 314 314 314 314 313 313 312 312 310 309 309 309 308 308 308 308 308 308 308 308 308 307 307 307 306 307 307 306 305 305 305 304 304 303 303 303 302 302 301 301
327 327 328 329 330 331 331 330 329 328 328 327 327 327 326 324 321 318 318 318 319 319 320 320 320 320 321 323 324 323 320 318 317 317 318 318 318 318 317 317 316 316 316 316 315 315 314 314 314 313 312 311 311 310 310 309 309 309 308 307 307 307 307 307 308 308 307 306 306 306 306 306 305 305 304 304 304 303 303 302 302 302 301 301 301
326 327 327 327 328 329 330 330 330 329 328 328 328 328 328 326 324 320 318 318 320 321 321 321 321 321 322 323 323 323 321 319 318 318 318 318 318 317 316 316 316 316 316 315 315 314 314 313 313 312 312 311 311 310 310 310 309 309 308 307 307 307 307 307 307 307 306 306 306 306 306 305 304 304 304 304 303 303 302 302 301 301 301 301 301
326 326 325 325 326 326 327 329 330 329 328 327 327 327 327 327 326 323 320 318 319 320 321 321 322 322 323 323 323 323 322 320 319 319 318 318 318 317 316 316 316 316 316 315 315 314 314 313 312 312 311 311 310 310 309 309 309 308 308 307 306 306 306 307 306 306 306 305 305 305 305 304 304 304 303 303 303 302 302 302 301 301 301 301 301
325 325 324 324 324 325 326 328 328 327 327 327 326 326 325 325 325 325 323 320 318 319 320 321 322 323 323 323 323 323 322 321 319 319 318 318 318 318 317 317 317 316 316 315 314 314 314 313 313 312 312 311 311 310 309 309 309 308 308 308 306 305 306 306 306 306 305 305 305 305 304 304 304 303 303 303 303 302 302 302 301 301 301 300 300
325 325 324 323 324 326 327 327 326 325 325 325 325 325 325 323 324 325 325 323 320 318 318 319 321 321 322 322 323 323 323 322 320 319 319 319 318 318 318 317 317 316 315 315 314 315 314 314 313 313 312 312 311 310 310 310 309 308 308 306 304 303 305 306 305 305 305 304 304 304 304 303 303 303 303 302 302 302 302 301 301 301 300 300 300
325 324 323 323 324 326 327 326 326 325 325 325 325 325 325 324 324 324 324 324 322 320 319 319 320 321 322 323 322 322 323 322 321 320 320 319 319 318 317 317 316 316 315 315 315 314 314 314 313 313 312 312 311 310 310 309 307 305 304 301 299 300 304 306 305 304 304 304 304 304 303 303 303 303 302 302 302 302 302 301 301 301 301 300 300
322 322 322 323 324 325 326 326 326 326 326 326 326 325 326 326 325 325 325 325 324 323 323 322 322 322 322 322 322 322 323 322 320 319 319 319 318 317 317 316 316 315 315 315 314 314 314 314 313 313 312 311 310 310 309 307 304 301 299 297 298 301 305 305 304 304 304 304 303 303 303 303 302 302 302 302 302 302 301 301 301 301 301 300 300
321 320 321 323 324 325 325 325 325 325 325 324 324 323 324 325 325 325 326 325 325 325 325 324 322 321 322 321 321 321 322 322 320 319 318 318 317 317 316 316 316 315 315 315 314 314 314 313 312 312 311 310 310 309 307 305 303 300 298 297 299 303 305 304 304 304 303 303 303 303 303 302 302 302 302 302 301 301 301 300 300 301 300 300 299
320 319 319 320 323 325 324 324 324 323 322 322 322 322 321 322 324 325 326 326 325 325 325 322 320 319 320 320 320 321 322 322 321 320 318 318 317 317 316 316 316 315 315 314 314 313 313 312 312 311 311 309 309 308 306 303 303 302 298 297 300 304 305 304 303 303 303 303 303 303 302 302 302 302 301 301 300 300 300 300 300 300 300 300 299
320 319 318 318 320 322 322 321 321 320 319 319 321 322 321 321 322 323 325 326 326 325 324 322 320 319 318 319 321 321 322 322 321 320 319 318 317 317 317 316 315 315 314 314 313 312 312 312 311 310 310 309 308 307 305 303 303 302 298 297 300 303 304 303 303 303 303 303 303 302 302 302 302 301 301 300 300 300 300 300 300 300 300 299 299
Wind_Speed
21 21 23 23 21 21 24 25 24 23 22 21 21 21 21 21 21 22 23 23 23 23 25 25 25 27 25 23 24 22 23 26 26 25 24 23 21 20 17 16 16 16 15 14 12 11 12 12 12 9 7 8 8 8 7 5 4 4 5 6 6 6 8 9 7 6 7 7 5 4 5 5 5 6 6 5 6 6 7 9 9 6 5 6 8
20 19 20 21 22 22 20 22 25 25 24 23 22 22 22 22 22 22 24 24 24 25 26 25 24 26 27 24 23 21 21 23 25 25 25 23 22 21 19 18 17 16 15 15 14 13 13 11 10 9 8 8 9 9 7 5 3 4 3 4 4 5 6 8 7 6 6 7 6 4 3 3 2 4 5 5 6 6 5 6 7 6 4 4 5
18 18 18 19 22 21 19 20 23 25 25 25 24 24 24 24 24 24 24 25 25 25 26 26 25 26 28 27 26 25 24 24 23 23 22 22 23 22 21 20 19 17 16 16 14 13 12 12 10 10 10 10 9 7 7 6 5 4 4 4 4 5 5 6 6 5 5 6 5 3 2 2 3 4 4 4 5 6 6 6 6 6 5 4 4
13 15 17 18 18 18 18 17 13 14 18 21 23 24 23 24 24 25 26 26 25 25 26 26 26 26 26 26 26 27 29 27 25 24 22 23 24 23 22 21 20 18 17 16 15 13 12 12 11 10 11 12 11 8 7 8 7 5 4 5 5 5 5 5 5 4 4 5 5 5 4 4 5 5 5 4 4 4 5 6 7 6 5 4 3
8 11 12 11 12 13 14 15 12 11 15 19 22 23 21 21 24 26 27 27 27 27 26 27 28 28 26 25 24 26 29 28 26 25 24 25 26 25 23 22 20 18 17 18 17 15 13 13 12 11 11 11 9 7 6 6 6 6 6 6 5 5 5 5 5 5 4 5 6 6 5 5 6 7 5 3 3 5 5 6 7 6 3 2 1
3 5 5 6 11 15 14 14 16 18 19 19 21 23 21 18 21 25 28 29 29 28 28 28 29 30 29 27 25 25 25 27 26 26 26 25 26 25 23 21 20 19 19 20 18 16 15 14 13 12 12 11 9 8 7 7 7 6 5 5 3 3 4 5 6 5 4 5 6 6 7 5 5 4 2 1 4 6 6 6 7 5 3 3 4
6 5 1 5 12 17 15 13 14 17 19 18 19 22 21 16 14 18 23 27 29 30 30 28 29 30 30 30 29 27 25 25 25 26 27 26 24 24 23 21 21 21 21 21 19 17 16 15 13 12 13 12 10 9 8 7 5 4 4 3 3 3 5 6 6 5 4 5 5 6 6 4 3 2 0 2 5 7 7 7 7 7 7 7 7
5 5 2 4 8 11 13 13 13 14 16 17 16 18 21 21 18 15 14 19 25 28 31 31 31 31 31 31 31 29 28 26 26 26 27 26 25 24 22 21 22 23 22 21 20 17 15 14 13 12 12 12 10 9 8 7 5 3 4 4 3 3 4 5 5 5 6 6 6 6 5 4 2 1 1 2 4 4 5 6 9 10 11 11 10
3 3 3 5 6 5 6 10 12 14 15 15 13 14 17 19 20 18 13 11 15 21 26 30 32 32 33 33 31 30 30 30 29 28 27 26 25 25 23 22 23 23 23 21 18 16 14 13 12 12 11 11 11 10 9 8 7 6 5 5 4 4 4 4 6 8 9 8 7 6 5 4 2 0 2 2 1 1 4 7 10 11 12 12 12
2 2 2 4 4 4 5 7 9 12 15 16 15 14 12 10 13 19 20 16 13 14 18 24 29 30 32 33 33 32 32 32 32 30 29 27 25 25 24 23 22 21 22 21 19 16 14 13 12 12 11 11 11 10 9 8 7 6 5 5 4 4 4 5 7 9 10 10 10 9 7 5 3 1 1 2 1 1 4 7 8 8 9 9 10
3 2 2 3 4 3 4 6 7 8 11 14 15 14 11 10 15 21 24 23 19 13 13 18 24 27 29 31 33 34 34 33 32 31 30 28 26 26 26 25 23 22 22 22 20 17 16 14 13 13 13 13 11 9 7 7 6 4 3 2 3 4 5 7 9 10 11 12 11 9 7 5 4 3 2 2 2 4 5 6 7 7 8 7 6
4 4 3 4 4 3 3 4 6 8 9 11 13 13 12 15 18 19 21 25 24 19 14 15 20 26 29 30 32 35 35 34 32 31 31 29 27 28 28 25 22 21 22 22 20 18 17 16 15 15 14 13 11 8 7 5 3 3 2 0 2 3 5 6 8 9 10 9 7 4 3 3 4 4 4 3 4 5 6 8 9 9 10 10 8
4 4 4 5 5 5 5 5 5 6 8 10 12 13 14 16 19 19 20 23 26 23 18 15 15 21 27 31 32 34 35 35 33 32 31 30 28 28 27 23 21 20 19 18 19 18 17 17 17 15 13 11 9 9 9 7 5 4 3 2 1 2 4 4 5 5 6 4 3 3 1 1 3 4 6 5 6 7 10 13 14 14 15 15 12
4 5 6 6 7 7 7 7 7 6 6 9 11 13 15 16 17 18 18 20 24 26 24 20 16 16 20 26 30 32 33 33 33 33 32 31 29 28 26 24 24 23 21 19 19 18 17 19 19 17 15 12 10 11 11 10 8 7 7 6 5 3 2 3 3 3 3 5 6 7 5 3 1 2 4 4 5 9 13 17 17 17 18 18 15
5 5 6 7 8 8 8 10 10 10 8 8 10 12 14 16 16 17 17 18 21 24 25 24 22 18 16 18 23 28 30 31 32 33 33 31 29 28 27 24 24 24 22 21 21 19 18 20 21 19 17 12 10 12 13 12 11 12 12 12 13 13 14 14 13 13 12 11 11 9 7 6 4 2 1 1 5 10 15 18 19 19 21 20 18
6 6 7 9 9 9 10 11 12 12 11 10 10 11 13 15 16 17 17 17 18 19 21 23 23 20 16 15 17 22 27 30 32 33 33 31 30 29 27 25 24 24 23 23 21 19 19 20 20 18 16 13 12 14 14 14 15 18 19 20 21 21 21 19 18 18 17 16 14 12 10 8 6 4 3 4 7 12 18 20 19 20 22 20 18
8 8 8 9 10 10 12 12 12 11 11 11 11 12 12 13 14 16 17 17 17 17 18 18 18 18 18 18 17 17 22 26 29 31 32 32 30 28 27 26 25 24 24 23 21 21 20 21 20 18 17 16 17 17 16 16 19 23 24 25 24 23 21 19 18 18 18 18 17 16 15 12 10 9 8 10 13 17 21 19 15 17 20 17 14
7 7 7 8 9 10 10 11 11 10 10 10 10 11 11 11 11 13 14 16 17 17 17 16 14 16 21 23 21 19 19 21 24 27 30 31 31 29 29 29 28 26 25 23 21 21 20 19 19 19 19 19 20 20 19 20 24 28 27 27 25 21 18 17 17 17 19 20 20 20 20 18 17 16 13 13 15 17 18 17 15 16 19 15 11
6 6 6 7 7 7 8 8 9 9 8 7 6 7 9 9 9 10 11 12 13 15 16 15 15 16 20 22 23 22 21 20 21 23 25 26 27 28 29 30 29 28 26 25 23 22 21 21 19 18 18 20 22 23 22 24 27 29 29 27 25 20 18 18 18 19 21 23 24 24 25 25 25 24 22 19 16 14 14 15 15 17 19 16 13
5 5 6 7 7 7 7 8 8 7 6 5 4 3 5 7 8 9 9 10 11 13 13 14 14 14 15 17 20 22 22 23 22 22 23 24 25 26 28 30 29 28 27 26 25 24 23 23 21 19 19 22 24 25 26 27 29 29 29 27 23 21 20 20 20 21 22 23 24 25 27 28 28 29 29 28 26 22 19 16 16 19 22 22 22
5 5 6 8 9 9 9 9 9 9 7 5 3 2 1 2 4 5 7 7 8 8 9 10 10 10 11 12 14 16 17 20 20 19 21 25 26 27 30 32 32 31 29 26 25 25 25 25 24 24 24 25 28 29 28 27 28 27 26 25 24 23 23 22 21 21 21 21 22 23 24 25 26 28 28 29 29 29 27 25 23 23 24 25 25
5 5 7 9 10 11 11 11 11 11 11 10 9 8 6 4 3 3 4 5 5 6 6 6 5 3 3 5 7 8 9 12 14 15 18 23 25 28 30 30 30 30 30 27 25 24 24 25 25 27 30 30 30 30 29 26 27 27 26 26 25 23 22 22 21 20 20 21 22 22 22 21 22 23 23 24 25 26 27 27 26 26 26 25 24
6 8 9 9 10 11 11 12 12 13 13 14 14 14 12 10 9 8 7 7 8 9 9 9 9 9 8 6 4 3 4 7 11 15 17 21 25 28 28 26 24 25 25 26 27 28 26 27 29 32 33 33 31 30 29 28 28 28 27 24 22 21 21 21 21 20 20 21 22 23 22 21 20 19 19 19 20 22 24 24 24 25 25 23 22
5 9 10 8 9 10 11 13 14 14 15 16 17 18 17 15 14 13 13 14 15 15 14 14 16 17 16 14 13 12 12 10 9 11 15 20 25 28 27 25 22 21 19 19 25 35 38 36 38 40 37 35 34 32 32 31 28 27 27 25 24 24 23 22 22 21 22 21 22 22 21 21 20 19 16 15 16 20 22 23 22 23 23 22 20
6 8 9 10 10 11 12 14 15 16 17 18 19 19 19 18 18 17 17 18 19 19 19 19 20 21 20 19 17 17 19 20 18 16 17 21 23 22 24 24 22 22 21 16 16 35 51 50 45 45 42 39 38 35 33 32 29 27 28 28 26 25 23 22 22 23 22 22 21 21 20 19 19 19 16 14 14 17 21 22 21 21 20 20 20
12 12 11 12 14 15 15 16 16 17 19 21 21 20 20 20 20 20 20 21 20 20 21 21 21 22 22 22 20 20 24 27 28 27 26 27 26 22 22 27 29 30 32 25 15 25 50 58 51 46 44 42 39 35 32 31 29 26 26 26 24 22 21 21 22 23 23 22 21 20 19 18 18 17 16 16 16 17 20 20 20 20 19 20 22
17 15 13 13 16 18 18 18 19 20 21 22 23 23 22 21 21 21 20 20 20 20 21 21 22 22 22 22 22 23 26 29 31 33 34 36 36 34 34 37 39 38 42 40 29 30 46 55 50 45 43 41 39 35 31 30 29 28 27 26 25 23 22 21 21 21 22 22 21 20 19 18 18 18 18 19 20 20 19 18 17 18 18 18 22
17 14 13 13 16 19 20 21 22 22 22 23 24 24 23 22 22 21 19 19 20 20 20 20 21 21 21 22 23 25 27 29 29 31 34 38 40 41 39 39 41 41 43 45 40 38 44 47 44 41 40 38 36 34 31 30 29 28 27 26 25 24 23 23 22 21 20 19 19 19 19 19 19 19 19 19 20 19 17 16 16 16 16 18 21
14 13 12 13 15 19 21 23 24 24 24 26 26 25 24 22 22 21 20 20 22 23 23 22 22 23 23 23 25 26 27 27 27 30 34 37 38 39 38 38 40 40 40 40 40 40 41 41 39 38 36 34 33 31 29 29 28 27 26 25 24 23 22 22 22 21 19 18 18 19 19 19 19 19 19 19 18 17 16 16 17 16 18 21 23
12 12 12 12 14 16 18 19 21 23 25 28 30 30 28 25 24 24 23 24 26 28 29 29 29 31 32 31 32 33 32 31 32 35 38 39 39 39 39 39 39 38 37 38 38 37 36 36 34 33 32 31 29 27 27 27 27 26 25 23 22 22 21 20 19 19 19 19 19 19 19 19 18 18 18 19 18 17 17 17 17 16 19 22 24
13 13 12 12 13 14 15 16 18 22 25 27 30 32 32 31 30 30 30 32 34 35 36 36 36 38 40 39 38 37 36 35 35 36 37 38 39 39 37 35 34 33 33 35 34 32 31 31 29 28 29 27 25 25 25 26 26 25 24 23 22 21 20 19 18 18 19 20 20 19 18 18 18 17 17 18 18 19 19 19 18 18 21 23 22
16 15 14 13 14 16 17 18 20 22 23 25 26 29 31 33 32 32 34 38 38 38 38 38 37 37 38 38 38 37 35 35 35 36 36 36 35 33 32 31 31 30 30 31 30 28 28 28 26 25 25 24 24 24 25 25 24 24 23 23 21 20 20 19 18 18 20 21 20 20 19 19 19 18 18 17 18 19 21 21 20 21 21 21 20
17 17 16 16 17 18 18 19 20 21 22 23 24 25 28 30 30 31 33 35 35 34 33 31 30 29 29 29 29 29 29 28 27 27 27 26 24 24 26 27 28 28 29 29 28 27 26 27 26 25 25 25 24 25 25 25 24 23 23 23 21 20 19 18 18 19 20 21 22 21 20 19 19 19 18 18 18 19 21 21 20 20 19 18 17
18 17 17 18 19 19 19 20 21 22 22 22 23 24 25 27 29 30 29 28 28 27 26 25 25 25 24 24 24 25 24 24 23 22 22 23 24 26 27 28 28 29 29 30 29 28 27 27 27 26 26 26 26 26 26 25 24 23 23 22 20 19 18 17 18 19 20 20 21 21 20 19 18 19 19 18 17 18 18 19 18 17 17 15 14
18 16 16 18 20 20 21 22 22 22 22 21 22 23 24 26 27 27 26 25 24 23 23 25 26 26 26 26 26 27 26 26 26 26 27 28 29 30 30 29 28 27 28 28 28 28 28 28 27 26 27 26 26 25 25 24 23 23 22 20 19 18 17 17 18 19 19 19 19 18 16 16 16 17 18 18 17 17 17 18 18 18 17 16 15
20 18 18 19 20 21 21 22 23 23 22 22 23 23 24 25 26 25 25 25 24 23 24 25 25 25 25 25 26 26 26 26 26 27 28 28 28 28 29 29 27 26 26 27 28 28 28 27 27 27 27 27 26 25 24 22 21 20 19 18 17 17 17 17 17 17 18 18 17 16 15 15 16 17 17 17 17 17 17 17 17 17 17 16 16
21 21 21 20 21 21 21 21 22 23 23 24 24 25 25 25 25 24 24 23 23 24 24 23 22 23 23 23 23 23 22 22 23 23 24 23 24 25 28 28 27 27 27 28 28 28 28 27 27 26 26 25 25 24 23 21 19 18 17 16 16 16 17 16 16 16 16 16 15 14 14 14 15 15 15 16 16 17 16 16 16 16 16 15 15
20 22 22 22 22 22 22 22 22 22 23 25 25 25 25 24 24 23 23 22 22 22 21 21 20 21 21 20 21 21 20 20 20 21 21 21 23 25 28 28 28 28 28 27 27 27 26 25 24 24 24 23 22 22 21 20 18 17 16 15 15 15 16 16 15 15 14 14 13 12 12 13 13 12 12 13 14 15 15 15 14 14 14 14 14
20 21 22 22 23 23 23 22 22 22 22 23 24 25 25 24 23 22 21 20 20 20 19 19 18 18 18 20 22 21 20 21 22 22 23 23 24 26 27 27 27 27 26 24 24 24 23 22 21 21 22 22 21 20 19 19 18 17 15 15 14 14 13 13 12 12 12 12 12 10 9 11 13 12 12 12 13 13 14 14 13 13 14 14 13
20 21 22 22 22 23 23 22 22 22 22 21 22 23 24 24 24 23 21 20 19 18 17 17 16 16 17 19 20 20 21 22 23 24 24 25 24 24 25 25 25 24 23 23 22 22 21 20 19 19 20 21 21 20 19 18 17 16 15 14 14 14 12 11 10 10 11 12 11 11 11 13 14 14 14 14 14 14 15 15 14 13 13 13 11
20 21 22 21 22 22 22 22 22 23 22 22 22 22 23 23 23 23 22 21 20 18 17 16 15 16 18 16 15 16 20 23 23 24 25 25 24 23 23 24 24 23 22 21 21 20 20 19 18 18 20 21 21 20 19 18 16 15 14 13 13 12 12 11 9 10 11 11 11 11 12 13 14 14 15 15 15 14 15 15 15 14 13 13 11
21 21 19 18 20 22 22 21 22 23 22 22 23 22 22 22 22 22 22 22 21 19 18 17 16 17 17 13 10 14 20 22 23 24 24 23 23 22 22 23 23 22 21 20 20 20 19 19 18 18 20 20 19 18 16 15 13 13 12 11 10 10 9 9 9 9 10 11 11 12 14 15 16 15 16 16 16 15 15 15 15 14 14 13 12
19 17 14 14 16 20 21 22 22 23 23 23 23 22 21 21 22 22 23 23 22 21 20 20 18 17 15 11 10 14 20 23 22 23 23 22 22 22 22 23 23 22 21 21 21 20 19 19 19 19 19 17 16 14 13 12 10 10 9 8 8 7 7 8 8 9 12 13 13 15 17 18 17 17 17 16 16 16 16 15 15 15 13 12 11
17 12 11 12 13 14 19 22 24 24 24 23 22 22 21 21 22 22 22 23 23 23 22 22 20 18 15 12 10 12 18 23 23 22 23 23 22 22 24 24 24 23 22 21 20 19 18 18 19 18 17 15 14 13 13 11 9 8 7 6 6 5 5 6 7 9 12 15 15 16 18 17 16 16 16 16 16 16 16 14 13 12 12 10 10
16 11 9 9 8 10 17 24 26 26 25 24 24 23 23 23 23 22 22 22 23 24 23 23 21 18 16 14 11 10 15 21 23 23 23 23 23 23 24 24 24 23 22 22 21 19 17 17 17 17 15 14 13 12 11 9 7 6 5 5 4 3 5 5 6 8 12 15 16 16 17 16 15 15 15 15 14 14 13 12 10 10 10 9 9
15 12 9 6 6 10 17 24 28 28 26 25 25 26 26 25 24 23 23 23 23 24 24 23 22 19 16 15 12 10 14 21 24 23 23 24 24 24 24 24 24 24 23 22 21 18 16 16 16 14 13 12 10 9 7 6 4 3 2 1 1 3 6 6 6 8 12 14 15 15 16 16 15 15 14 13 12 11 11 10 9 9 8 8 8
14 13 9 6 7 11 17 21 25 26 25 24 26 27 28 28 27 26 25 25 25 23 23 23 22 19 17 16 14 12 16 23 25 23 24 26 26 25 25 26 26 25 24 22 20 18 16 15 14 12 11 11 9 8 6 4 3 2 2 2 2 7 9 8 7 10 13 13 13 14 14 15 15 14 13 12 12 10 10 9 8 7 7 8 8
14 12 9 7 10 13 15 16 17 18 18 18 20 21 23 27 30 30 28 27 27 24 22 22 22 20 19 18 15 14 18 25 27 25 25 27 28 27 27 27 26 26 24 22 20 18 16 14 13 11 11 10 9 9 7 5 4 4 4 1 6 10 11 9 9 12 14 13 12 12 12 12 14 14 13 12 11 9 8 8 7 6 7 10 9
13 11 9 10 13 15 15 14 13 12 11 12 12 12 13 18 25 30 31 29 28 26 23 21 21 21 22 20 17 16 21 27 28 27 27 29 28 27 27 27 27 26 24 22 20 19 16 15 14 12 11 10 10 9 8 5 6 7 4 4 9 12 11 10 10 13 14 14 12 11 11 12 14 13 12 11 9 8 8 7 5 6 9 12 11
14 12 10 12 15 16 15 13 11 10 10 9 10 11 9 10 16 25 30 31 29 26 24 22 22 23 23 21 18 18 22 26 27 27 29 29 28 28 28 27 27 26 24 22 21 20 18 16 14 11 10 10 10 8 7 4 6 8 5 6 11 13 12 10 11 13 14 14 13 12 12 13 13 13 11 11 10 9 7 5 5 8 12 13 11
15 14 12 11 12 14 13 11 11 11 11 10 9 10 10 9 11 17 24 29 29 28 25 24 24 24 22 20 18 20 23 25 27 28 29 29 29 29 29 29 27 26 24 23 22 20 17 15 12 10 9 10 9 7 5 3 3 5 5 6 11 13 12 11 11 13 13 13 12 12 11 11 11 11 11 12 11 9 6 6 8 12 13 11 9
Wind_Direction
232 231 229 227 225 223 222 220 220 221 218 216 216 213 215 218 220 221 222 223 223 224 227 229 230 233 235 231 227 231 234 231 231 233 237 240 242 244 245 243 246 253 258 261 263 269 273 268 266 273 276 272 268 259 258 267 267 255 256 256 247 245 249 242 234 256 275 275 269 239 202 199 200 202 214 218 209 214 224 233 246 255 243 223 215
234 236 238 239 232 226 227 225 221 220 219 218 219 217 217 219 220 223 225 225 226 227 229 231 232 232 230 228 226 227 228 226 227 232 236 238 239 240 241 240 244 250 252 255 261 268 271 267 263 271 275 272 273 274 263 250 259 269 249 228 231 243 249 247 249 257 266 279 291 274 209 199 220 218 233 245 235 230 230 226 230 237 240 228 216
229 230 235 243 241 236 238 235 225 218 216 217 219 221 222 222 220 222 224 227 229 230 231 232 232 230 228 229 232 231 228 226 225 227 231 234 236 237 238 240 243 248 249 254 262 263 262 260 259 262 257 243 239 257 269 272 281 272 247 245 264 272 265 255 256 261 266 282 295 286 257 257 261 256 260 261 243 226 219 208 205 206 209 216 229
224 225 227 234 242 247 257 261 247 225 220 221 220 222 225 226 224 223 224 226 227 228 231 233 233 230 227 228 231 232 232 231 231 232 231 233 235 236 238 239 241 246 249 251 254 255 252 249 246 250 251 237 221 226 259 279 278 259 263 290 297 285 272 261 270 277 273 283 291 289 285 272 271 281 286 274 241 208 193 185 184 188 198 214 232
238 239 239 237 238 244 257 265 258 237 227 226 223 222 227 230 229 228 227 227 227 227 229 231 232 230 228 228 229 229 231 232 233 232 231 233 237 238 238 238 241 245 246 245 247 248 247 246 245 244 243 237 227 228 251 263 257 260 285 304 303 283 266 268 286 293 283 284 285 282 279 276 279 284 286 272 209 182 170 170 173 172 182 198 193
303 267 253 236 228 224 222 226 229 228 225 222 222 224 228 232 233 231 230 229 228 227 229 231 230 229 230 231 228 225 225 228 230 229 228 232 235 235 235 237 241 243 242 241 243 246 248 250 252 249 241 237 233 229 239 246 247 261 283 296 295 273 264 278 286 284 280 282 279 277 281 284 281 279 284 237 185 175 164 158 155 145 144 144 122
4 357 292 222 231 229 222 219 224 229 228 225 227 228 226 229 235 230 227 229 228 226 228 230 230 229 230 231 230 227 224 225 227 228 229 230 228 228 233 238 240 239 238 239 239 243 251 251 249 248 241 237 233 226 229 235 241 265 277 277 283 273 270 277 276 273 284 289 282 280 287 296 298 294 304 166 171 170 170 161 140 120 112 113 114
16 10 339 263 259 245 234 232 231 231 231 231 233 234 231 235 246 246 230 225 227 227 227 229 231 230 230 230 228 226 227 227 225 225 227 227 226 227 231 235 237 236 236 237 236 239 247 247 247 246 235 226 222 217 214 215 225 244 247 245 255 260 265 270 267 273 282 281 283 288 291 295 300 318 94 142 158 171 177 156 131 117 106 99 102
13 8 327 305 308 288 252 242 239 236 235 231 229 237 240 240 247 255 252 238 229 229 230 231 231 230 228 227 224 223 226 228 227 226 226 225 226 228 229 231 235 237 235 231 228 232 238 242 245 238 221 211 213 217 219 225 235 236 229 231 239 248 261 267 265 270 270 263 264 274 282 280 266 102 80 91 104 192 179 157 143 130 112 96 92
15 360 329 331 337 322 288 267 254 243 238 234 232 239 244 237 237 241 244 245 241 236 234 232 230 229 225 223 223 224 226 228 228 228 228 227 226 226 226 226 226 229 227 221 220 224 228 232 230 218 206 207 219 228 229 230 235 233 232 236 243 261 275 272 267 265 261 255 253 252 250 245 232 202 111 82 77 157 171 169 166 153 135 112 88
53 31 350 357 13 353 294 278 272 259 246 243 242 241 235 232 238 237 234 237 240 244 247 237 229 228 228 226 225 225 227 228 226 225 226 227 228 225 222 220 220 222 221 217 217 218 218 217 208 198 197 206 220 228 224 225 232 226 223 244 267 276 275 272 271 266 259 255 252 248 240 230 228 224 202 185 172 165 163 168 175 168 153 134 94
41 33 10 353 3 3 318 286 277 270 262 254 248 245 240 239 244 243 237 237 239 244 257 252 235 229 228 229 228 226 226 227 224 222 223 225 227 225 221 218 220 220 217 215 214 211 210 206 196 196 202 207 216 219 204 199 210 192 169 359 304 277 269 271 271 268 264 256 240 235 239 220 219 229 216 192 175 165 146 141 147 141 122 107 88
9 6 357 339 338 339 322 309 297 276 267 263 254 251 250 245 242 243 242 240 237 239 249 254 244 231 226 226 227 225 225 226 223 221 223 224 224 222 218 218 222 222 217 216 212 207 204 199 191 192 198 197 199 199 184 167 153 151 156 141 133 261 271 279 276 271 268 245 178 131 97 173 215 231 226 207 178 153 130 124 125 119 105 94 86
351 345 341 332 328 325 310 304 307 297 277 267 259 254 252 249 243 244 247 243 236 235 239 243 244 236 226 224 225 225 225 226 225 223 223 223 222 219 217 219 224 224 221 218 215 208 201 197 191 186 187 187 184 181 177 175 167 160 162 150 128 118 112 104 108 111 110 112 103 87 74 62 359 250 246 228 173 143 133 129 123 113 102 93 89
349 342 336 329 324 320 312 304 302 302 296 281 268 260 257 254 248 245 247 247 243 239 240 243 245 242 232 224 222 224 225 226 226 224 221 221 219 216 214 216 219 219 216 214 212 205 196 195 191 187 186 188 189 183 178 174 167 155 144 130 115 106 99 94 93 92 88 86 83 76 69 57 41 41 18 213 160 141 137 133 125 116 107 95 89
359 353 343 335 328 323 320 315 308 303 300 292 279 269 264 259 250 243 243 248 252 250 247 245 245 245 244 236 224 221 222 223 224 222 220 219 216 211 209 212 214 212 207 203 201 196 190 190 188 185 184 182 181 179 173 166 159 147 133 122 113 105 97 90 88 87 84 82 81 79 74 71 69 77 107 138 139 137 133 126 119 117 109 92 78
1 355 347 341 333 326 323 322 318 311 304 297 285 273 268 265 255 244 241 245 251 254 253 251 250 250 250 245 236 226 219 218 218 218 217 215 212 205 203 204 203 197 192 191 191 188 186 187 186 182 179 175 170 167 166 164 156 145 133 124 116 109 101 96 91 89 88 87 86 86 84 85 89 95 111 126 133 138 133 122 117 116 106 91 76
359 354 348 344 338 332 330 328 325 321 313 304 293 277 268 267 259 246 243 247 253 256 256 255 252 248 244 241 239 235 227 220 215 213 213 214 210 202 194 190 186 183 181 181 182 180 179 183 186 182 177 174 168 163 165 165 155 145 136 128 122 117 110 104 98 95 94 91 89 89 87 86 88 90 97 115 132 141 133 122 123 115 101 95 91
355 359 354 349 347 344 345 346 341 333 322 315 305 277 259 256 253 246 245 250 254 254 251 247 243 242 242 242 241 238 234 231 223 216 213 210 204 197 188 181 177 175 175 174 172 171 172 175 180 181 176 172 168 165 168 166 155 145 137 130 125 121 116 111 109 105 98 91 87 86 86 85 86 85 87 93 105 118 120 121 127 117 101 92 87
4 8 10 9 10 10 11 15 15 4 344 330 322 276 246 241 237 239 243 248 251 250 248 247 245 243 243 245 244 241 238 234 229 222 214 202 195 194 191 185 179 175 174 175 173 171 172 172 172 174 174 170 168 167 166 161 151 142 136 129 125 123 119 116 115 110 100 91 88 87 86 86 85 84 83 83 83 86 90 98 109 108 100 89 80
29 25 34 36 35 34 36 40 42 41 35 23 18 25 271 222 208 209 215 224 235 236 235 234 234 233 235 238 239 238 235 229 223 216 206 197 196 199 196 192 189 183 177 175 174 173 174 173 169 168 169 169 166 161 156 151 144 138 133 128 127 128 125 120 117 111 103 96 93 91 89 88 87 85 84 83 82 81 82 85 89 91 90 86 81
54 50 54 51 48 49 52 57 59 59 60 62 61 62 68 83 108 137 166 179 173 165 173 179 175 177 202 219 225 224 221 217 210 201 194 190 191 194 192 189 189 184 176 172 170 167 167 167 164 163 163 162 158 152 146 143 138 133 130 129 129 129 126 123 120 113 105 100 96 93 91 91 91 90 90 89 87 85 85 86 88 87 83 82 81
75 59 56 54 54 58 63 67 70 68 66 68 69 69 75 87 99 110 127 137 133 126 125 122 108 91 81 83 98 133 163 190 195 190 184 178 176 181 181 178 179 177 170 166 163 157 153 152 151 152 152 148 145 141 137 134 131 129 129 130 128 127 125 124 120 112 105 100 94 91 89 90 91 93 95 97 96 93 92 92 93 92 89 84 81
95 58 54 57 62 69 75 77 77 73 72 74 74 73 75 83 91 99 110 116 113 106 102 102 97 86 77 72 76 93 110 123 147 164 167 165 166 171 173 170 169 164 152 149 152 145 138 135 136 137 136 132 129 128 126 124 123 125 127 127 126 125 123 120 116 110 103 97 92 89 88 88 88 90 93 100 105 103 100 98 97 96 92 86 81
118 77 69 72 76 81 85 85 83 77 72 73 75 75 76 79 80 83 89 93 94 93 91 92 92 89 84 77 72 81 98 105 110 120 135 142 143 149 157 152 143 132 119 108 127 134 130 125 124 123 122 120 118 116 117 118 121 124 125 124 123 123 121 118 114 107 101 96 92 90 89 88 89 90 94 103 113 116 111 104 100 96 91 85 77
106 95 88 85 86 90 91 92 92 85 76 73 75 78 81 83 83 82 82 84 85 87 88 90 91 90 88 86 82 83 91 97 102 107 116 121 118 116 122 122 117 112 106 92 80 108 116 115 113 111 112 113 112 109 110 115 119 119 117 117 119 121 123 122 116 109 103 98 95 92 92 93 94 96 99 101 105 117 122 114 103 95 89 83 75
104 98 92 87 88 89 88 89 91 87 80 77 77 78 81 85 85 83 83 85 86 88 89 91 92 90 88 88 89 89 90 92 96 100 104 108 110 110 108 108 110 110 108 103 91 83 94 101 104 106 107 110 111 112 112 112 113 111 109 110 112 114 117 119 117 113 109 103 99 97 97 98 98 97 97 94 94 104 116 115 103 94 87 80 73
104 96 88 85 88 87 85 85 87 86 84 83 80 78 78 81 82 82 85 91 93 92 91 91 91 92 93 93 93 90 89 90 93 98 101 103 106 108 107 106 108 107 106 108 105 97 95 99 103 105 105 105 107 110 110 109 108 108 108 109 109 110 112 113 113 112 112 111 108 106 103 99 96 93 92 90 89 94 102 105 101 94 87 79 73
105 97 92 89 90 90 87 87 88 86 85 84 82 80 82 83 84 84 88 96 102 102 99 97 97 98 97 97 98 94 90 92 98 103 106 106 106 107 107 107 107 107 107 109 109 106 103 103 103 103 103 102 102 104 105 105 105 106 106 108 109 109 110 110 109 108 110 114 115 113 109 102 96 92 90 87 85 87 94 100 102 96 88 81 77
114 108 102 94 93 93 90 89 89 87 86 86 85 85 86 87 89 90 91 96 101 103 102 102 103 103 101 99 101 100 99 103 107 107 107 107 108 108 108 109 109 111 113 113 110 106 104 103 103 104 105 104 103 102 102 103 103 102 104 105 105 105 105 105 106 108 108 109 112 114 112 105 97 92 87 85 85 86 91 97 100 96 88 84 81
123 118 111 104 102 100 96 95 95 93 92 92 91 90 88 86 88 93 96 98 98 99 100 100 100 101 102 103 104 106 106 107 107 107 107 109 109 109 109 110 110 112 114 113 108 105 104 104 104 105 106 106 106 105 104 104 103 103 103 102 101 102 101 101 106 110 109 108 110 113 112 106 99 93 89 88 89 88 90 96 100 97 91 88 86
125 120 118 115 111 108 106 105 103 100 98 97 97 95 93 90 88 92 99 102 101 100 100 101 101 101 103 105 108 109 108 107 107 108 110 111 111 111 112 113 114 115 115 111 106 105 106 107 107 109 110 108 107 106 106 105 105 105 105 101 99 99 98 99 106 111 111 110 112 112 111 107 103 98 95 93 92 89 88 94 101 102 96 91 89
127 123 123 123 118 115 113 110 107 105 104 102 101 100 100 99 98 99 102 103 102 102 102 102 102 103 103 106 110 112 113 114 115 115 115 115 116 118 120 121 122 122 118 111 107 107 108 108 108 110 110 109 108 108 106 106 106 106 105 102 100 100 99 101 106 110 111 111 112 112 112 110 106 103 100 97 93 90 88 90 98 103 100 95 91
132 128 128 128 124 121 119 116 113 110 108 107 106 104 105 108 110 110 109 107 104 103 102 101 100 101 102 104 108 112 116 119 120 121 121 121 123 125 125 124 122 121 117 113 110 109 109 108 108 109 110 110 111 110 108 107 107 107 106 104 103 104 105 105 105 108 111 111 110 110 110 109 108 107 106 102 97 92 86 85 90 94 95 94 91
135 132 132 130 128 126 124 121 118 115 113 112 111 111 111 114 116 116 115 114 109 105 105 106 102 100 103 107 109 111 113 115 118 122 123 124 127 128 125 118 114 112 112 111 111 111 111 111 112 112 111 111 112 113 111 109 108 107 107 107 105 106 108 107 106 108 111 111 109 108 108 108 108 107 106 105 101 94 86 83 84 86 86 85 82
140 138 138 136 133 131 129 127 124 122 121 119 117 118 119 120 121 121 120 118 114 111 113 113 107 101 105 112 115 115 117 119 122 125 127 129 133 132 124 115 111 110 110 111 112 114 115 116 117 117 115 113 112 113 112 111 109 109 108 107 105 104 105 107 108 109 110 109 109 109 109 109 111 110 107 105 103 98 91 86 83 82 80 79 76
148 146 145 143 140 138 136 135 132 129 127 125 123 122 123 124 126 126 124 121 118 117 120 121 112 104 107 115 120 121 122 125 127 130 131 133 135 131 123 119 117 115 114 116 117 117 118 120 121 121 120 119 116 114 112 110 110 110 109 108 107 106 106 108 111 113 113 111 110 111 112 113 114 112 107 106 105 101 94 89 85 80 77 76 74
152 153 152 151 150 147 143 141 139 136 133 131 128 126 126 128 131 131 129 126 125 124 127 129 121 111 109 118 126 128 127 128 128 128 128 129 128 125 123 122 121 119 119 121 122 121 121 123 124 124 125 126 123 119 116 113 111 112 114 114 111 110 112 114 116 117 119 117 114 113 114 116 116 112 106 106 107 102 94 88 83 77 74 72 70
154 157 158 158 158 155 152 149 146 143 140 137 134 133 132 134 136 137 136 135 134 133 135 135 130 120 117 124 131 132 130 129 126 124 123 124 124 125 125 124 122 123 124 125 126 127 127 127 129 132 133 134 132 129 124 119 115 115 118 120 117 115 116 116 114 113 116 120 118 114 116 121 121 116 111 112 112 107 101 95 86 78 74 72 70
160 161 163 165 165 162 159 157 155 151 148 145 143 141 140 141 142 144 145 144 144 145 145 143 138 132 129 132 136 138 135 132 131 130 128 128 128 129 129 129 128 127 128 129 130 132 132 132 132 135 137 139 139 137 131 126 119 115 115 118 118 115 113 112 110 110 114 120 121 119 123 130 127 117 112 113 113 109 107 102 94 86 78 72 71
166 165 165 169 171 169 164 163 163 161 157 155 154 151 149 149 150 150 151 153 154 155 155 152 148 144 140 137 140 146 144 139 138 139 138 137 138 139 137 136 136 133 133 135 136 135 136 136 135 136 137 138 139 138 133 127 122 117 114 117 119 115 107 103 108 115 121 124 126 125 129 136 134 123 119 120 119 114 108 100 93 87 81 72 70
171 170 170 172 174 174 174 172 171 169 167 165 164 161 157 156 157 158 159 160 161 162 162 160 158 157 153 144 141 155 156 149 145 148 148 146 147 147 144 143 143 140 140 143 142 137 135 135 136 139 140 139 139 139 135 130 126 120 115 118 125 125 111 100 105 122 128 127 129 133 136 137 135 128 125 125 122 116 107 98 92 90 85 77 71
173 176 181 183 181 180 181 180 178 176 175 172 171 170 168 165 165 167 168 169 170 170 169 167 167 168 166 153 142 156 164 160 155 155 157 155 154 153 151 149 148 148 147 147 145 140 136 135 135 138 141 143 145 145 143 141 138 127 115 116 129 137 124 105 109 128 135 132 133 137 138 136 132 128 126 125 121 115 110 104 100 97 90 81 72
178 181 186 191 192 192 193 191 189 186 182 178 176 177 177 175 175 176 176 178 179 179 178 175 174 175 175 168 156 159 168 169 166 164 164 163 160 158 155 152 153 154 153 150 151 151 148 142 139 138 138 140 142 140 138 137 131 117 108 115 130 144 142 123 117 131 140 140 139 141 141 139 135 133 130 127 124 119 115 110 104 95 87 79 72
190 189 184 187 198 205 202 199 197 194 189 183 181 181 182 182 183 185 185 185 187 188 188 186 183 183 183 182 177 172 175 177 176 173 171 170 167 164 161 159 159 161 160 157 157 159 157 152 148 143 139 139 138 135 132 128 116 107 117 129 133 153 162 144 126 134 146 147 145 146 145 142 139 138 137 134 131 127 121 114 103 91 84 81 75
199 196 194 208 216 197 189 190 194 197 195 190 188 187 186 186 188 191 194 195 193 194 196 195 193 194 194 193 192 189 183 182 182 181 179 177 174 171 170 168 168 168 167 164 163 165 164 162 158 153 150 151 149 143 137 127 113 111 129 155 201 199 184 163 140 142 152 152 147 143 142 140 139 139 138 136 135 131 125 120 108 94 94 100 92
203 198 203 226 213 183 174 178 187 193 196 197 196 195 193 191 193 196 201 201 198 196 199 200 199 198 198 198 198 194 185 182 183 184 183 180 176 173 173 173 173 172 170 169 168 169 169 168 166 161 159 160 158 150 142 128 100 38 340 323 205 183 178 169 156 154 155 154 148 142 139 138 139 141 141 140 138 133 131 130 116 96 107 125 118
199 199 208 217 200 182 174 172 175 179 186 193 197 196 194 195 197 200 202 203 201 198 200 203 202 199 197 197 200 197 188 184 184 184 182 179 175 175 176 176 175 175 173 172 173 174 175 175 174 169 165 164 161 153 145 125 69 22 5 77 155 163 167 166 160 158 158 158 157 153 148 143 143 143 142 139 133 126 129 132 112 90 114 135 128
194 193 199 197 186 180 180 181 179 178 183 189 192 188 184 190 196 199 201 203 203 201 201 203 202 198 195 197 203 202 192 186 185 184 181 178 177 178 179 179 178 178 176 175 175 177 176 173 171 168 166 164 158 150 144 121 59 36 42 138 157 160 164 164 159 158 161 163 162 160 156 151 148 146 140 133 126 128 137 135 103 90 118 129 121
197 193 193 189 180 176 179 188 195 199 200 199 198 197 193 189 193 198 200 201 201 201 200 200 200 198 198 202 207 204 195 190 188 185 181 179 180 181 182 180 179 179 178 176 175 174 171 168 166 166 166 162 154 143 137 114 57 43 61 144 163 165 166 164 159 158 161 160 157 155 154 151 147 141 132 125 126 133 138 124 99 111 126 127 117
206 204 207 206 196 186 185 193 204 212 213 208 201 202 201 187 176 185 196 201 203 203 201 200 201 202 201 201 201 197 193 191 189 186 183 182 183 183 182 181 180 179 176 174 172 171 168 165 165 166 166 161 153 143 136 119 59 47 73 143 168 175 175 171 165 164 165 164 158 154 152 150 146 142 136 133 134 134 123 109 113 122 123 117 108